Showing default

LEMUR-2 EMARCHIA, 68492

Orbit data source: Space-Track

LEMUR-2 EMARCHIA, 68492 is a payload satellite owned by Spire (DE) in SSO that was launched on Mon, 30 Mar 2026 UTC via an FALCON 9 launch vehicle from the Air Force Western Test Range (AFWTR). Payload-class satellites include a variety of spacecraft equipped with specific instruments for various scientific and technological missions. These include communications satellites like Starlink; space stations such as the ISS; scientific satellites like the Hubble; Earth observation satellites from companies like Planet Labs, Umbra, and HawkEye 360; GPS; miniature CubeSats for education and research; and military/defense satellites.

Loading next visibility...
Identifier
68492, 2026-067CE
Orbit
SSO
Country
Flag of DEDE / GER
Related business
Manufacturer
Spire/Glasgow
Mission
Operational spacecraft
Bus & Motor
CUBESAT 3U, Unknown motor
Mass
7.6 kg wet, 7.6 kg dry
Launch date (UTC)
2026-03-30 (3 months ago)
Launch vehicle
FALCON 9
Launch site
Air Force Western Test Range (AFWTR)
Object type
Payload
Rocket body
Debris
Shape & HBR
Unknown shape, 0.2 m
Radar Cross Section
Medium (>0.1 m² and <1 m²)

Expand to show TLE details & history
Last TLE update: 2 days ago

TLE from 2 days ago
0 LEMUR-2 EMARCHIA
1 68492U 26067CE  26171.42575653  .00004929  00000-0  49505-3 0  9994
2 68492  97.7562 129.5443 0005155  60.6651 299.5083 14.91718315 12206
Epoch: 2026-06-20T10:13Z
TLE epoch observation values (Epoch: 2026-06-20T10:13:05.364Z)
Latitude
0.00008°
Longitude
67.63138°
Altitude
593.85 km
Speed
7.564 km/s
True Right ascension
08h 38m 10s
True Declination
0° 00' 00"
Sunlit
Object was in daylight at epoch
Visualization orbit readout
Latitude
Unknown
Longitude
Unknown
Altitude
Unknown
Speed
Unknown
Apparent Right ascension
Unknown
Apparent Declination
Unknown
Sunlit
N/A
Visualization observer readout
Local Sidereal Time
13:50:17
Azimuth
Unknown
Elevation
Unknown
Doppler factor
Unknown
Orbital elements
Apogee altitude
593.188 km
Perigee altitude
586.004 km
Semi-major axis
6,967.733 km
Eccentricity
0.00052
Inclination
97.7562°
RAAN
129.5443°
Arg. of periapsis
60.6651°
True anomaly
299.45687°
Mean anomaly
299.5083°
Eccentric anomaly
299.48259°
Mean motion
3.73169 °/min
Orbital period
96.47 mins
BSTAR
0.00049505
Loading maneuver chart data...
Computing Atmospheric mass density...
Loading historical data...
Loading historical data...
Loading historical data...
Loading historical data...
Loading historical data...
Loading historical data...
Loading historical data...

Documentation

Showing up to 5 results
|